Weather in Hannivka

Ukraine / Kirovohrad Region     48°35′38″N   30°57′28″E
temp.,
°C
wind,
m/s
gust,
m/s
humid.,
%
clouds,
%
prec.,
mm/h
press.,
hPa
HPBL,
m
15 may, sat
sat1500:00+11ssw36935 0.1 1009107
03:00+10ssw34948 0.1 100973
06:00+10sw349415 0.1 101067
09:00+16sw33735 0.1 1011457
12:00+20sw46532 0.0 10111684
15:00+19wsw575695 0.1 10111154
18:00+19w575995 0.0 10121055
21:00+16nw22698 0.0 101215
16 may, sun
sun1600:00+12ne11825 0.0 101310
03:00+12ene22865 0.0 101317
06:00+11e228811 0.0 101323
09:00+18ese2368100 0.0 1013431
12:00+22se335252 0.0 10121307
15:00+23ese4442100 0.0 10102122
18:00+23e3451100 0.0 10091216
21:00+18ene2365100 0.0 100828
17 may, mon
mon1700:00+16ene3472100 0.0 100858
03:00+16n3572100 0.0 1006129
06:00+14nw3498100 7.9 1006137
09:00+14nnw5998100 15.3 1005296
12:00+15nw4795100 0.9 1004315
15:00+15wnw4895100 3.4 1004366
18:00+14nw5996100 22.0 1004375
21:00+13wsw1194100 22.3 100510
18 may, tue
tue1800:00+12s239486 0.0 100640
03:00+11sse34967 0.0 100582
06:00+12sse349595 0.1 100573
09:00+16s5783100 1.0 1005550
12:00+18w787399 0.6 10051172
15:00+18w796563 1.1 10071415
18:00+17wnw68715 0.3 1008920
21:00+13wnw34875 0.3 100956
19 may, wed
wed1900:00+11wnw34915 0.0 101052
03:00+10nw2291100 0.0 101122
06:00+11nw228897 0.0 101139
09:00+13n2381100 0.0 1012320
12:00+14n447674 0.1 1012613
15:00+16nnw4365100 0.1 1011807
18:00+15n3469100 0.0 1011460
21:00+13ne3476100 0.0 101161